TimeAEST,TemperatureF,Dew PointF,Humidity,Sea Level PressureIn,VisibilityMPH,Wind Direction,Wind SpeedMPH,Gust SpeedMPH,PrecipitationIn,Events,Conditions,WindDirDegrees,DateUTC
12:00 AM,73,69,83,29.91,,SSE,4.6,,,,,150,2013-05-14 14:00:00
12:00 AM,73.4,69.8,88,29.89,6.2,SSE,4.6,-,N/A,,Partly Cloudy,150,2013-05-14 14:00:00
12:30 AM,73.4,69.8,88,29.92,6.2,South,5.8,-,N/A,,Partly Cloudy,180,2013-05-14 14:30:00
1:00 AM,73,69,84,29.92,,South,4.6,,,,,170,2013-05-14 15:00:00
1:00 AM,73.4,69.8,88,29.89,6.2,South,4.6,-,N/A,,Partly Cloudy,170,2013-05-14 15:00:00
1:30 AM,73.4,69.8,88,29.89,6.2,South,5.8,-,N/A,,Scattered Clouds,170,2013-05-14 15:30:00
2:00 AM,71.6,69.8,94,29.89,6.2,ESE,5.8,-,N/A,,Partly Cloudy,120,2013-05-14 16:00:00
2:30 AM,71.6,68.0,88,29.89,6.2,SE,1.2,-,N/A,,Partly Cloudy,140,2013-05-14 16:30:00
3:00 AM,71,69,90,29.90,,Calm,Calm,,,,,,2013-05-14 17:00:00
3:00 AM,71.6,68.0,88,29.89,6.2,Calm,Calm,-,N/A,,Partly Cloudy,0,2013-05-14 17:00:00
3:30 AM,71.6,69.8,94,29.89,6.2,SE,6.9,-,N/A,,Partly Cloudy,130,2013-05-14 17:30:00
4:00 AM,71,69,91,29.90,,SSE,5.8,,,,,160,2013-05-14 18:00:00
4:00 AM,71.6,69.8,94,29.89,6.2,SSE,5.8,-,N/A,,Partly Cloudy,160,2013-05-14 18:00:00
4:30 AM,69.8,68.0,94,29.89,6.2,SE,4.6,-,N/A,,Partly Cloudy,130,2013-05-14 18:30:00
5:00 AM,69.8,68.0,94,29.89,6.2,East,1.2,-,N/A,,Partly Cloudy,90,2013-05-14 19:00:00
5:30 AM,71.6,68.0,88,29.89,6.2,SSE,5.8,-,N/A,,Partly Cloudy,150,2013-05-14 19:30:00
6:00 AM,70,68,92,29.91,19,West,2.3,,,,Partly Cloudy,270,2013-05-14 20:00:00
6:00 AM,69.8,68.0,94,29.89,6.2,West,2.3,-,N/A,,Mostly Cloudy,270,2013-05-14 20:00:00
6:30 AM,69.8,68.0,94,29.92,6.2,WNW,2.3,-,N/A,,Mostly Cloudy,290,2013-05-14 20:30:00
7:00 AM,70,68,92,29.94,,Calm,Calm,,,,,,2013-05-14 21:00:00
7:00 AM,69.8,68.0,94,29.92,6.2,Calm,Calm,-,N/A,,Mostly Cloudy,0,2013-05-14 21:00:00
7:30 AM,73.4,69.8,88,29.92,6.2,South,4.6,-,N/A,,Mostly Cloudy,170,2013-05-14 21:30:00
8:00 AM,75.2,69.8,83,29.92,6.2,SSE,3.5,-,N/A,,Mostly Cloudy,150,2013-05-14 22:00:00
8:30 AM,77.0,69.8,78,29.92,6.2,SSE,8.1,-,N/A,,Mostly Cloudy,150,2013-05-14 22:30:00
9:00 AM,77,68,68,29.95,19,SSE,10.4,,,,Partly Cloudy,150,2013-05-14 23:00:00
9:00 AM,77.0,68.0,74,29.95,6.2,SSE,10.4,-,N/A,,Mostly Cloudy,150,2013-05-14 23:00:00
9:30 AM,78.8,68.0,69,29.95,6.2,South,8.1,-,N/A,,Mostly Cloudy,170,2013-05-14 23:30:00
10:00 AM,80,68,59,29.96,,SSE,9.2,,,,,160,2013-05-15 00:00:00
10:00 AM,80.6,68.0,65,29.95,6.2,SSE,9.2,-,N/A,,Mostly Cloudy,160,2013-05-15 00:00:00
10:30 AM,80.6,68.0,65,29.95,6.2,SSE,8.1,-,N/A,,Mostly Cloudy,160,2013-05-15 00:30:00
11:00 AM,80.6,68.0,65,29.95,6.2,South,8.1,-,N/A,,Mostly Cloudy,170,2013-05-15 01:00:00
11:30 AM,82.4,68.0,62,29.92,6.2,SSE,5.8,-,N/A,,Mostly Cloudy,160,2013-05-15 01:30:00
12:00 PM,81,69,58,29.92,19,East,5.8,,,,Partly Cloudy,100,2013-05-15 02:00:00
12:00 PM,80.6,68.0,65,29.92,6.2,East,5.8,-,N/A,,Mostly Cloudy,100,2013-05-15 02:00:00
12:30 PM,82.4,69.8,66,29.89,6.2,ENE,9.2,-,N/A,,Mostly Cloudy,70,2013-05-15 02:30:00
1:00 PM,82.4,69.8,66,29.89,6.2,NE,6.9,-,N/A,,Mostly Cloudy,40,2013-05-15 03:00:00
1:30 PM,84.2,68.0,58,29.86,6.2,NE,10.4,-,N/A,,Mostly Cloudy,40,2013-05-15 03:30:00
2:00 PM,82.4,68.0,62,29.86,6.2,ENE,11.5,-,N/A,,Mostly Cloudy,60,2013-05-15 04:00:00
2:30 PM,82.4,68.0,62,29.86,6.2,ENE,12.7,-,N/A,,Mostly Cloudy,60,2013-05-15 04:30:00
3:00 PM,83,70,57,29.86,19,NE,10.4,,,,Partly Cloudy,50,2013-05-15 05:00:00
3:00 PM,82.4,69.8,66,29.86,6.2,NE,10.4,-,N/A,,Mostly Cloudy,50,2013-05-15 05:00:00
3:30 PM,82.4,69.8,66,29.86,6.2,ENE,10.4,-,N/A,,Mostly Cloudy,60,2013-05-15 05:30:00
4:00 PM,81,69,58,29.87,,ENE,9.2,,,,,70,2013-05-15 06:00:00
4:00 PM,80.6,68.0,65,29.86,6.2,ENE,9.2,-,N/A,,Mostly Cloudy,70,2013-05-15 06:00:00
4:30 PM,80.6,68.0,65,29.86,6.2,ENE,10.4,-,N/A,,Mostly Cloudy,60,2013-05-15 06:30:00
5:00 PM,78.8,68.0,69,29.86,6.2,ENE,6.9,-,N/A,,Mostly Cloudy,70,2013-05-15 07:00:00
5:30 PM,78.8,68.0,69,29.86,6.2,ENE,6.9,-,N/A,,Mostly Cloudy,60,2013-05-15 07:30:00
6:00 PM,77,69,71,29.88,,ENE,5.8,,,,,60,2013-05-15 08:00:00
6:00 PM,77.0,69.8,78,29.86,6.2,ENE,5.8,-,N/A,,Mostly Cloudy,60,2013-05-15 08:00:00
6:30 PM,75.2,69.8,83,29.86,6.2,NE,2.3,-,N/A,,Mostly Cloudy,50,2013-05-15 08:30:00
7:00 PM,73.4,69.8,88,29.89,6.2,West,1.2,-,N/A,,Mostly Cloudy,270,2013-05-15 09:00:00
7:30 PM,75.2,69.8,83,29.89,6.2,Calm,Calm,-,N/A,,Mostly Cloudy,0,2013-05-15 09:30:00
8:00 PM,75.2,69.8,83,29.92,6.2,South,6.9,-,N/A,,Mostly Cloudy,170,2013-05-15 10:00:00
8:30 PM,75.2,69.8,83,29.92,6.2,South,8.1,-,N/A,,Mostly Cloudy,170,2013-05-15 10:30:00
9:00 PM,75,70,79,29.93,,South,5.8,,,,,170,2013-05-15 11:00:00
9:00 PM,75.2,69.8,83,29.92,6.2,South,5.8,-,N/A,,Mostly Cloudy,170,2013-05-15 11:00:00
9:30 PM,75.2,69.8,83,29.92,6.2,South,8.1,-,N/A,,Partly Cloudy,180,2013-05-15 11:30:00
10:00 PM,75,69,78,29.94,,South,8.1,,,,,190,2013-05-15 12:00:00
10:00 PM,75.2,69.8,83,29.92,6.2,South,8.1,-,N/A,,Partly Cloudy,190,2013-05-15 12:00:00
10:30 PM,75.2,69.8,83,29.92,6.2,North,2.3,-,N/A,,Scattered Clouds,10,2013-05-15 12:30:00
11:00 PM,73.4,69.8,88,29.92,6.2,Calm,Calm,-,N/A,,Partly Cloudy,0,2013-05-15 13:00:00
11:30 PM,71.6,69.8,94,29.92,6.2,Calm,Calm,-,N/A,,Partly Cloudy,0,2013-05-15 13:30:00